TimeEST,TemperatureF,Dew PointF,Humidity,Sea Level PressureIn,VisibilityMPH,Wind Direction,Wind SpeedMPH,Gust SpeedMPH,PrecipitationIn,Events,Conditions,WindDirDegrees,DateUTC
12:53 AM,33.1,33.1,100,29.69,0.2,Calm,Calm,-,N/A,Fog,Fog,0,2013-02-12 05:53:00
1:37 AM,33.8,32.0,93,29.70,0.2,Calm,Calm,-,N/A,Fog,Fog,0,2013-02-12 06:37:00
1:53 AM,33.1,33.1,100,29.70,0.5,Calm,Calm,-,N/A,Fog,Fog,0,2013-02-12 06:53:00
2:31 AM,33.8,32.0,93,29.71,1.2,Calm,Calm,-,N/A,,Overcast,0,2013-02-12 07:31:00
2:41 AM,33.8,32.0,93,29.72,2.5,Calm,Calm,-,N/A,,Overcast,0,2013-02-12 07:41:00
2:53 AM,33.1,33.1,100,29.71,3.0,Calm,Calm,-,N/A,,Overcast,0,2013-02-12 07:53:00
3:53 AM,36.0,30.9,82,29.72,10.0,SW,3.5,-,N/A,,Overcast,230,2013-02-12 08:53:00
4:53 AM,39.0,28.9,67,29.73,10.0,WSW,8.1,-,N/A,,Overcast,240,2013-02-12 09:53:00
5:53 AM,39.0,28.0,65,29.74,10.0,SW,9.2,-,N/A,,Overcast,230,2013-02-12 10:53:00
6:53 AM,39.9,26.1,58,29.76,10.0,West,10.4,-,N/A,,Overcast,260,2013-02-12 11:53:00
7:53 AM,39.0,27.0,62,29.78,10.0,WSW,9.2,-,N/A,,Overcast,250,2013-02-12 12:53:00
8:53 AM,39.0,27.0,62,29.80,10.0,WSW,10.4,-,N/A,,Overcast,250,2013-02-12 13:53:00
9:53 AM,39.9,26.1,58,29.81,10.0,West,15.0,-,N/A,,Overcast,260,2013-02-12 14:53:00
10:53 AM,41.0,25.0,53,29.83,10.0,WSW,11.5,-,N/A,,Overcast,250,2013-02-12 15:53:00
11:53 AM,41.0,26.1,55,29.83,10.0,West,13.8,21.9,N/A,,Overcast,270,2013-02-12 16:53:00
12:53 PM,42.1,25.0,51,29.84,10.0,West,13.8,-,N/A,,Mostly Cloudy,280,2013-02-12 17:53:00
1:53 PM,41.0,24.1,51,29.86,10.0,West,13.8,25.3,N/A,,Overcast,280,2013-02-12 18:53:00
2:53 PM,41.0,24.1,51,29.84,10.0,West,12.7,21.9,N/A,,Overcast,280,2013-02-12 19:53:00
3:53 PM,41.0,25.0,53,29.84,10.0,West,15.0,19.6,N/A,,Mostly Cloudy,280,2013-02-12 20:53:00
4:53 PM,39.0,24.1,55,29.81,10.0,WNW,4.6,-,N/A,,Mostly Cloudy,300,2013-02-12 21:53:00
5:53 PM,39.0,25.0,57,29.86,10.0,West,8.1,-,N/A,,Overcast,260,2013-02-12 22:53:00
6:53 PM,37.9,24.1,57,29.94,10.0,WSW,11.5,-,N/A,,Overcast,250,2013-02-12 23:53:00
7:53 PM,37.9,24.1,57,29.93,10.0,West,5.8,-,N/A,,Overcast,270,2013-02-13 00:53:00
8:53 PM,37.9,24.1,57,29.92,10.0,SW,4.6,-,N/A,,Overcast,230,2013-02-13 01:53:00
9:53 PM,37.0,24.1,59,29.88,10.0,West,5.8,-,N/A,,Overcast,270,2013-02-13 02:53:00
10:53 PM,37.0,23.0,57,29.89,10.0,West,9.2,-,N/A,,Overcast,280,2013-02-13 03:53:00
11:53 PM,36.0,23.0,59,29.89,10.0,WNW,3.5,-,N/A,,Overcast,300,2013-02-13 04:53:00